Wind_Speed
31 31 31 32 33 34 32 30 28 28 27 26 26 26 25 25 24 24 23 22 21 21 20 20 19 18 18 17 16 16 16 16 16 16 16 17 16 16 16 15 15 14 14 14 14 14 14 14 13
31 31 32 33 34 34 32 31 30 29 29 29 29 28 27 27 26 25 24 24 23 23 22 22 21 20 20 19 18 18 18 18 18 18 17 18 18 18 17 17 17 16 16 15 15 15 15 15 15
31 31 32 33 34 32 32 31 31 31 31 31 30 29 29 28 28 27 26 25 24 24 24 23 23 22 22 21 20 20 19 19 19 19 19 19 19 20 19 19 19 18 18 18 17 17 17 17 17
29 30 31 32 31 30 30 30 30 31 32 32 32 31 30 30 29 28 27 26 26 25 24 24 24 23 22 22 21 21 21 21 21 21 21 21 21 21 21 21 21 20 20 20 19 19 19 19 19
29 30 31 31 30 29 29 29 29 31 32 33 33 32 31 31 31 30 29 27 27 26 25 25 25 25 24 24 24 24 24 23 23 23 23 23 23 23 23 23 23 23 23 22 22 22 21 21 21
29 30 30 29 28 28 28 28 29 31 31 32 33 33 31 31 31 30 29 28 27 27 27 26 26 27 26 26 26 26 25 25 25 26 25 25 24 25 25 25 25 25 25 24 24 24 23 24 24
29 30 29 29 29 28 28 28 30 31 31 32 32 33 32 31 31 31 30 29 29 28 29 28 27 27 28 28 28 27 27 27 27 27 27 26 26 26 26 27 27 27 27 27 26 26 26 26 26
28 30 30 29 28 28 29 30 30 30 31 32 32 33 33 33 32 32 31 30 30 30 31 30 29 29 29 29 29 29 29 29 29 29 29 29 28 27 27 28 28 29 29 28 28 28 28 28 28
28 29 28 28 28 27 28 29 30 31 32 32 32 33 34 34 33 33 33 33 32 32 32 32 31 31 31 31 31 31 31 31 31 31 31 31 31 30 29 30 30 30 30 30 30 29 29 29 28
29 29 27 27 27 27 28 29 30 32 34 33 32 33 34 35 35 35 34 34 33 33 33 33 33 32 32 33 33 33 33 33 33 33 33 32 32 32 32 33 33 32 32 32 31 31 30 30 30
30 29 28 27 27 28 28 29 30 32 33 34 33 33 34 36 36 35 35 35 35 34 34 34 35 34 33 33 35 35 35 35 34 34 34 34 34 34 34 34 34 34 34 33 33 32 32 32 33
30 29 29 29 29 29 29 29 31 31 32 33 34 34 35 37 36 36 36 36 37 37 36 35 36 36 35 35 36 37 36 37 37 36 35 36 36 37 37 36 36 36 36 35 36 35 35 35 35
30 30 30 30 30 30 30 30 31 31 32 33 34 35 35 36 37 37 37 37 37 38 37 37 37 37 37 37 37 39 39 39 38 38 38 38 38 38 39 39 38 38 38 37 37 37 37 38 38
31 31 30 31 31 30 30 31 32 31 33 33 35 36 36 36 36 37 37 37 37 38 39 38 38 38 39 39 39 40 40 41 40 40 40 40 40 40 40 40 40 39 40 39 39 39 39 40 40
30 31 31 31 32 31 31 31 31 30 32 33 34 36 37 36 36 37 38 38 38 39 39 40 39 39 39 40 40 41 41 41 42 41 41 41 41 41 41 41 41 41 41 41 41 41 42 42 42
29 29 30 29 30 30 31 30 29 30 31 32 33 35 37 37 36 37 38 39 40 40 40 40 40 40 40 40 41 41 41 42 43 43 43 42 42 41 42 42 42 42 42 42 43 43 43 44 44
28 28 28 28 28 29 29 28 28 29 30 30 31 34 35 36 37 38 38 39 40 40 40 40 41 41 41 42 42 42 42 43 43 43 44 44 43 43 43 43 44 44 45 45 45 45 45 45 45
27 27 27 27 26 27 27 27 27 28 28 28 29 31 33 35 36 37 38 38 39 40 40 41 41 41 42 42 42 43 43 43 44 44 44 44 45 45 45 45 45 46 46 47 47 47 47 47 47
28 27 27 27 27 27 27 25 25 26 27 27 27 28 29 31 33 35 37 38 39 40 41 42 42 42 42 42 43 44 44 45 45 47 47 46 46 47 47 47 47 48 48 48 49 49 49 49 49
26 27 27 27 27 27 26 26 25 26 26 27 28 28 28 29 31 34 36 38 39 41 42 42 42 43 43 44 45 45 46 47 47 48 49 48 48 49 49 49 49 49 50 50 51 51 51 50 50
25 25 25 25 25 26 27 26 25 25 26 27 28 28 28 29 31 34 35 36 38 39 40 42 42 43 43 45 45 47 48 48 48 47 49 50 50 50 51 51 50 51 52 52 53 52 52 51 51
23 22 23 24 24 25 26 27 24 24 26 27 28 28 29 30 31 33 34 35 36 38 39 41 42 43 44 44 46 47 48 49 49 49 49 51 52 51 52 52 51 52 52 53 53 52 52 52 51
22 22 22 23 24 25 25 27 24 24 25 25 26 26 27 29 30 32 33 34 36 37 39 41 42 43 44 45 46 47 48 48 49 50 51 51 51 52 51 50 51 51 52 52 51 51 51 50 50
23 23 23 23 24 25 25 26 25 24 24 24 25 26 27 28 29 31 32 33 35 36 37 40 42 43 44 45 46 47 47 47 48 49 50 50 50 50 51 49 49 50 50 50 50 50 50 49 48
23 23 23 24 25 25 24 26 25 24 24 24 25 25 27 27 28 30 31 33 34 35 36 38 40 42 44 45 46 46 46 47 47 47 48 49 49 49 49 49 49 49 49 49 49 48 48 47 47
24 24 24 25 26 25 24 26 24 23 24 25 25 26 27 28 28 29 31 32 33 35 36 38 40 41 43 44 45 46 46 46 46 46 46 48 49 49 48 48 47 48 48 48 47 46 46 46 46
21 22 22 24 25 25 25 25 24 24 25 26 27 27 28 28 28 29 30 31 32 34 36 37 39 40 42 44 45 45 45 46 46 46 46 45 46 47 47 46 46 46 46 46 46 46 45 45 45
18 19 20 21 23 24 24 24 24 24 25 26 27 27 27 27 28 28 29 31 32 33 35 36 37 38 39 41 43 44 43 44 44 44 45 45 44 44 45 45 45 45 46 46 46 45 44 43 43
16 17 18 19 21 21 22 21 21 22 24 25 26 26 26 27 27 28 29 31 32 32 33 34 35 36 37 38 39 40 40 40 41 42 42 42 43 44 45 44 44 44 43 43 43 43 43 42 41
16 16 17 18 19 21 21 20 20 21 22 23 24 25 26 26 27 29 30 31 31 32 32 33 34 35 36 36 37 38 39 39 40 40 40 41 41 42 42 42 43 42 43 42 41 41 39 40 39
Wind_Direction
249 249 250 250 250 251 251 251 251 249 247 246 246 245 246 247 246 245 243 242 242 243 244 244 245 245 246 248 248 248 250 252 253 255 256 256 254 254 256 258 259 261 263 263 262 262 262 262 264
249 249 250 250 250 252 252 251 250 248 245 244 244 244 245 246 246 245 243 241 241 242 243 245 247 247 247 249 246 246 249 251 253 254 256 257 257 257 258 259 260 261 263 264 263 263 263 262 264
249 249 249 250 251 253 253 251 249 246 244 243 243 243 245 245 246 246 245 243 242 243 244 246 248 248 248 247 245 246 248 250 252 255 257 258 258 258 258 260 261 262 264 265 264 263 263 264 266
249 249 250 251 253 253 252 250 247 245 243 242 242 242 243 244 245 245 245 244 244 244 244 245 246 246 246 246 246 246 248 251 252 254 257 259 257 257 258 259 261 263 264 265 264 263 263 264 266
248 250 252 253 253 253 252 250 247 245 243 242 242 243 242 242 243 244 245 244 244 245 245 244 244 246 247 248 248 248 249 251 253 255 258 259 259 257 258 259 260 262 264 265 264 263 264 265 267
250 251 252 253 253 252 251 249 247 246 244 243 243 242 241 241 242 243 244 244 245 245 246 246 246 247 247 249 249 250 250 252 255 257 259 260 261 261 262 261 261 262 264 265 266 265 265 266 268
251 253 253 254 254 252 252 249 248 246 245 245 243 242 240 241 242 244 244 244 244 245 246 247 247 247 248 250 251 251 252 253 256 258 259 260 261 262 262 263 263 264 264 265 266 267 267 268 269
254 255 255 255 255 254 252 250 249 247 246 245 244 242 240 240 242 244 244 244 244 245 246 248 249 249 250 251 252 252 254 256 257 259 259 260 261 261 262 264 265 266 266 267 268 269 269 269 269
255 256 257 258 258 256 252 250 249 247 247 246 246 244 240 240 241 243 244 244 244 246 248 249 250 251 252 253 254 254 255 257 259 260 260 261 261 261 263 265 266 267 268 268 268 268 268 268 268
256 258 259 259 258 255 252 251 250 247 246 246 244 243 240 239 240 242 244 245 246 246 248 251 252 253 253 253 253 255 257 258 260 261 262 262 262 262 263 266 268 267 267 267 267 267 266 268 268
257 258 259 259 256 254 254 252 250 249 249 248 244 243 241 238 240 241 243 246 247 248 249 251 253 254 254 254 254 255 257 259 260 262 263 263 262 263 264 266 267 266 266 267 267 267 268 269 269
259 260 260 259 256 253 254 254 252 252 251 249 246 243 241 240 241 243 244 246 248 248 249 251 254 256 256 256 256 255 256 258 259 261 262 263 263 264 264 266 267 266 267 267 267 267 268 269 269
260 261 261 259 258 258 257 257 257 254 253 249 245 244 243 242 242 243 244 246 248 249 250 252 255 257 258 258 257 257 256 257 260 261 262 263 264 264 264 266 266 266 267 267 266 267 268 269 269
261 261 261 259 260 259 259 259 259 256 253 250 245 244 244 244 244 245 245 247 249 250 252 253 256 258 259 259 258 259 259 259 260 261 261 262 263 263 264 265 265 266 266 266 267 267 268 269 269
262 261 261 260 260 259 260 258 258 256 253 249 245 244 244 245 245 246 247 248 250 252 254 255 257 259 260 260 260 259 260 260 260 261 262 261 261 262 263 264 265 265 265 265 266 267 268 269 269
262 262 261 260 258 258 258 258 257 255 252 248 245 244 244 246 247 248 249 250 252 253 255 256 258 259 260 260 260 260 260 260 261 261 261 261 262 262 262 263 264 265 266 266 266 267 268 269 269
262 263 263 260 259 258 257 258 254 254 250 248 247 246 245 247 248 249 251 253 254 255 256 257 259 260 260 261 261 261 261 260 260 261 260 261 261 262 262 262 263 265 266 267 267 268 269 269 270
263 263 262 261 259 256 258 258 256 254 250 250 250 248 248 250 250 252 253 254 255 256 257 258 259 261 262 263 262 262 261 261 261 261 261 261 261 262 262 262 263 265 266 267 267 268 269 269 270
265 262 261 261 259 258 258 256 252 250 252 251 252 253 255 253 253 253 253 254 255 257 258 260 260 262 263 263 263 263 262 262 261 261 262 263 262 261 261 262 263 265 267 268 268 269 269 270 270
263 261 260 259 259 258 256 252 250 251 252 252 253 256 260 259 258 256 256 257 257 258 259 261 262 262 263 264 264 264 262 261 262 263 262 263 263 263 262 262 263 265 266 267 269 270 269 269 270
260 259 259 260 259 258 256 251 250 252 255 257 258 259 260 261 261 260 260 260 261 260 260 262 262 263 265 265 265 264 263 263 262 262 263 263 264 264 264 264 265 266 267 268 269 269 269 269 270
256 257 258 258 259 257 256 256 253 255 257 259 260 261 262 262 262 262 261 262 262 263 263 263 264 264 265 266 266 265 264 264 263 263 264 264 263 264 264 265 266 268 269 270 270 270 270 269 269
255 256 258 259 260 259 256 259 255 256 258 260 261 262 265 265 264 264 264 263 264 265 265 265 266 266 266 267 267 266 266 265 265 263 264 265 264 264 264 267 268 268 269 270 269 268 269 268 268
254 255 257 257 257 256 257 259 258 258 259 261 262 265 268 269 268 267 267 267 266 266 267 267 268 268 267 268 267 267 266 266 266 265 265 264 264 265 265 267 268 269 270 269 268 268 267 266 267
253 255 258 260 259 258 259 260 260 260 262 264 265 268 270 273 272 271 272 271 270 270 270 270 270 270 268 268 267 266 266 266 267 267 267 265 264 265 266 266 267 268 268 267 267 266 266 266 267
255 257 260 262 262 262 260 262 263 263 265 267 268 271 273 275 275 277 277 277 275 273 273 273 273 272 270 268 267 266 266 266 268 268 268 265 264 265 266 265 266 266 266 267 266 265 265 265 266
257 259 262 263 262 263 263 263 265 266 268 270 272 274 276 276 277 279 280 282 280 277 276 275 275 274 272 269 267 266 266 266 268 269 268 267 267 266 265 264 264 264 265 266 266 264 265 266 267
261 261 260 260 261 262 265 268 269 269 269 270 272 275 278 278 279 280 282 284 284 282 280 279 278 278 275 272 268 266 266 266 268 269 269 268 267 267 265 264 263 262 263 264 265 264 265 266 266
263 258 259 259 261 267 271 273 274 275 275 275 274 275 278 280 281 283 285 288 288 287 285 284 283 281 277 274 270 267 266 267 267 268 269 269 267 267 266 265 263 263 264 265 264 263 263 264 266
261 260 259 260 263 268 273 278 278 278 278 277 277 279 281 283 284 284 286 289 290 289 288 288 287 284 280 275 271 268 266 267 268 269 269 269 268 267 265 263 263 262 262 263 263 262 262 263 266
Height
5807 5808 5810 5812 5812 5813 5814 5817 5819 5821 5822 5823 5823 5824 5825 5827 5829 5833 5833 5834 5835 5836 5838 5839 5840 5841 5842 5843 5844 5844 5845 5846 5846 5847 5847 5848 5848 5848 5849 5849 5849 5849 5849 5849 5849 5849 5849 5849 5849
5800 5802 5804 5804 5804 5806 5809 5812 5813 5815 5816 5817 5818 5819 5820 5821 5823 5825 5827 5829 5831 5832 5834 5835 5836 5837 5838 5840 5840 5841 5842 5843 5843 5844 5844 5845 5845 5845 5846 5846 5846 5846 5846 5846 5846 5846 5846 5846 5846
5794 5795 5797 5797 5797 5800 5803 5805 5807 5807 5809 5810 5812 5813 5815 5816 5818 5820 5822 5824 5826 5828 5829 5831 5832 5833 5834 5836 5837 5838 5839 5839 5840 5840 5841 5841 5841 5842 5842 5842 5843 5843 5843 5843 5843 5843 5843 5843 5843
5788 5789 5790 5791 5791 5794 5796 5798 5799 5800 5802 5803 5805 5807 5809 5811 5813 5815 5817 5819 5821 5823 5824 5826 5827 5828 5830 5831 5833 5834 5835 5835 5836 5837 5837 5837 5838 5838 5838 5838 5839 5839 5839 5839 5839 5839 5839 5839 5839
5782 5782 5783 5784 5786 5788 5789 5791 5792 5793 5795 5797 5798 5800 5802 5805 5806 5809 5812 5814 5815 5818 5819 5821 5822 5824 5825 5827 5828 5829 5830 5831 5832 5832 5833 5833 5833 5833 5833 5834 5834 5834 5834 5834 5834 5835 5835 5835 5835
5776 5776 5777 5778 5780 5781 5782 5784 5785 5786 5787 5789 5791 5793 5796 5798 5800 5803 5805 5808 5810 5812 5814 5816 5817 5819 5820 5822 5823 5824 5825 5826 5827 5827 5828 5828 5828 5829 5829 5829 5829 5829 5829 5830 5830 5830 5830 5830 5830
5770 5770 5770 5772 5773 5775 5776 5776 5777 5779 5781 5783 5784 5786 5789 5792 5794 5797 5800 5802 5805 5806 5808 5810 5811 5813 5815 5816 5818 5819 5820 5821 5821 5822 5822 5823 5823 5823 5824 5824 5824 5824 5824 5824 5824 5824 5824 5824 5824
5763 5764 5764 5765 5766 5768 5769 5769 5770 5771 5773 5775 5777 5779 5783 5786 5789 5791 5793 5796 5799 5800 5802 5804 5806 5807 5809 5810 5812 5813 5814 5815 5816 5816 5817 5817 5817 5818 5818 5818 5818 5818 5818 5818 5818 5818 5818 5818 5818
5757 5758 5758 5759 5760 5762 5762 5762 5763 5764 5766 5768 5770 5772 5776 5779 5782 5784 5787 5790 5792 5795 5796 5798 5800 5801 5803 5804 5805 5807 5808 5808 5809 5810 5810 5811 5811 5811 5811 5811 5811 5811 5811 5811 5811 5811 5811 5811 5811
5750 5751 5753 5753 5753 5754 5755 5755 5756 5757 5758 5760 5763 5765 5767 5771 5774 5777 5780 5783 5786 5788 5790 5792 5793 5795 5796 5798 5799 5800 5801 5801 5802 5803 5803 5804 5804 5804 5804 5804 5804 5804 5804 5804 5804 5804 5804 5804 5804
5743 5745 5746 5746 5746 5746 5747 5748 5749 5750 5752 5753 5755 5758 5760 5764 5767 5770 5773 5776 5779 5781 5783 5785 5786 5788 5789 5791 5792 5793 5794 5794 5795 5795 5795 5796 5796 5797 5797 5797 5797 5796 5797 5797 5797 5797 5797 5797 5797
5736 5738 5738 5739 5739 5739 5740 5741 5742 5743 5745 5746 5748 5750 5753 5756 5760 5763 5766 5769 5771 5773 5776 5777 5779 5781 5782 5783 5784 5785 5786 5787 5787 5787 5787 5788 5788 5789 5789 5789 5789 5789 5789 5789 5789 5789 5789 5789 5789
5730 5730 5730 5731 5731 5732 5732 5733 5734 5735 5736 5737 5739 5743 5746 5749 5752 5755 5759 5761 5763 5765 5768 5770 5771 5773 5774 5775 5776 5777 5778 5779 5779 5779 5779 5779 5780 5780 5781 5781 5781 5781 5780 5781 5780 5780 5780 5780 5780
5722 5723 5723 5723 5723 5724 5724 5725 5726 5728 5728 5729 5732 5735 5739 5741 5744 5747 5750 5753 5755 5757 5759 5761 5763 5764 5765 5766 5767 5768 5769 5770 5770 5770 5770 5770 5770 5771 5772 5772 5772 5772 5772 5772 5771 5771 5771 5771 5771
5714 5715 5716 5715 5715 5716 5716 5718 5719 5719 5719 5721 5724 5727 5730 5733 5736 5739 5742 5744 5747 5748 5750 5752 5754 5755 5756 5757 5758 5759 5759 5760 5760 5760 5761 5761 5761 5761 5762 5762 5763 5763 5762 5762 5762 5762 5762 5762 5761
5707 5707 5708 5709 5707 5708 5709 5710 5712 5710 5711 5713 5716 5719 5722 5725 5727 5731 5733 5735 5738 5740 5741 5743 5744 5746 5747 5747 5748 5748 5749 5750 5750 5750 5750 5751 5751 5751 5752 5752 5753 5753 5752 5752 5752 5752 5752 5751 5751
5699 5699 5700 5701 5700 5700 5700 5702 5704 5703 5703 5705 5708 5710 5713 5716 5719 5722 5724 5727 5728 5730 5732 5733 5734 5736 5737 5737 5738 5738 5739 5739 5739 5739 5740 5741 5741 5741 5742 5742 5742 5742 5742 5742 5742 5742 5741 5741 5740
5693 5693 5693 5694 5693 5693 5693 5695 5696 5696 5696 5698 5700 5703 5705 5707 5710 5713 5715 5717 5719 5720 5722 5723 5724 5725 5726 5726 5727 5728 5728 5728 5729 5729 5729 5729 5730 5731 5731 5731 5731 5731 5731 5731 5731 5731 5731 5730 5729
5685 5685 5686 5687 5686 5686 5687 5688 5690 5689 5689 5691 5693 5695 5697 5699 5701 5703 5705 5707 5708 5710 5711 5713 5714 5715 5715 5716 5716 5717 5717 5717 5718 5718 5718 5718 5719 5719 5720 5720 5720 5720 5720 5720 5720 5720 5719 5718 5718
5677 5678 5679 5680 5679 5679 5680 5682 5683 5683 5683 5685 5686 5687 5689 5690 5692 5693 5695 5696 5698 5699 5701 5702 5703 5703 5704 5704 5704 5705 5705 5706 5706 5706 5706 5707 5707 5708 5708 5708 5708 5708 5708 5708 5708 5707 5707 5707 5706
5671 5672 5673 5673 5673 5672 5673 5675 5677 5677 5677 5678 5679 5680 5681 5682 5683 5684 5685 5686 5687 5688 5689 5690 5690 5691 5691 5692 5692 5692 5692 5693 5694 5694 5694 5694 5695 5695 5695 5696 5696 5696 5696 5695 5695 5694 5694 5694 5693
5665 5666 5666 5666 5666 5666 5667 5667 5672 5671 5671 5671 5673 5673 5674 5674 5674 5675 5675 5676 5676 5677 5677 5678 5678 5679 5679 5679 5679 5679 5680 5681 5681 5681 5682 5682 5681 5682 5682 5683 5683 5682 5682 5681 5681 5680 5680 5680 5679
5659 5660 5660 5660 5660 5660 5661 5661 5665 5665 5664 5665 5665 5666 5666 5666 5665 5665 5665 5666 5666 5666 5666 5666 5666 5666 5666 5666 5666 5666 5666 5667 5667 5667 5668 5668 5668 5668 5669 5669 5669 5668 5667 5667 5667 5667 5666 5666 5665
5653 5654 5654 5654 5654 5654 5655 5655 5657 5658 5658 5658 5659 5658 5658 5657 5657 5657 5656 5656 5655 5655 5654 5654 5653 5653 5653 5653 5652 5652 5653 5653 5653 5653 5654 5654 5654 5655 5655 5655 5655 5655 5654 5653 5653 5653 5653 5652 5653
5646 5648 5648 5647 5647 5648 5649 5648 5651 5651 5652 5652 5652 5651 5650 5649 5649 5648 5647 5646 5645 5644 5643 5642 5641 5640 5639 5639 5639 5639 5639 5640 5640 5640 5640 5640 5641 5642 5642 5642 5642 5642 5641 5641 5641 5641 5640 5640 5640
5640 5641 5642 5642 5641 5642 5642 5642 5646 5646 5645 5644 5644 5643 5642 5641 5640 5639 5638 5636 5635 5633 5631 5630 5628 5627 5626 5626 5625 5626 5626 5626 5627 5627 5627 5627 5628 5628 5629 5629 5629 5629 5629 5628 5628 5629 5629 5629 5629
5634 5634 5635 5635 5635 5635 5636 5637 5639 5639 5638 5637 5636 5636 5634 5633 5632 5631 5629 5627 5625 5623 5621 5618 5616 5615 5613 5612 5612 5612 5613 5613 5614 5614 5614 5614 5614 5615 5615 5616 5616 5616 5616 5617 5617 5617 5617 5618 5618
5629 5629 5629 5629 5628 5628 5630 5631 5632 5632 5631 5630 5629 5627 5626 5625 5623 5622 5620 5617 5615 5612 5610 5607 5605 5603 5601 5599 5599 5599 5600 5600 5601 5601 5601 5601 5601 5601 5602 5603 5604 5604 5604 5605 5605 5606 5607 5607 5607
5624 5624 5623 5623 5623 5623 5623 5627 5625 5624 5623 5622 5621 5620 5618 5617 5615 5613 5611 5608 5605 5602 5599 5597 5594 5591 5589 5587 5586 5587 5587 5587 5588 5588 5588 5588 5589 5589 5590 5591 5592 5592 5593 5594 5594 5595 5596 5596 5597
5618 5618 5619 5619 5619 5618 5617 5621 5618 5617 5615 5615 5614 5612 5611 5609 5607 5604 5601 5598 5596 5593 5590 5586 5583 5581 5578 5576 5575 5575 5575 5576 5576 5576 5577 5576 5577 5577 5578 5579 5580 5581 5582 5583 5583 5584 5585 5586 5587